Location: Unspecified
(0.0000°N, 0.0000°E)
Time: 13:03:57
(UTC+00:00)

S-56A Canister/Altair - Pass Details

Date: 28 May 2024
Orbit: 637 x 2489 km, 38.9° (Epoch: 17 June)

Event Time Altitude Azimuth Distance (km) Brightness Sun altitude
Rises 03:33:32 0° 262° (W) 5,987 - -33.1°
Reaches altitude 10° 03:38:27 10° 274° (W) 5,096 - -32.0°
Exits shadow 03:44:39 21° 296° (WNW) 4,254 10.9 -30.6°
Maximum altitude 03:49:43 25° 323° (NW) 3,954 10.9 -29.4°
Drops below altitude 10° 04:00:23 10° 13° (NNE) 4,752 12.0 -27.0°
Sets 04:04:52 0° 26° (NNE) 5,514 12.6 -26.0°
